Change the Weather History Date:

Monday, December 23, 2013

  Actual Average (KCTY) Record (KCTY)
Temperature  
Mean Temperature 64 °F 53 °F  
Max Temperature 73 °F 65 °F 79 °F (1998)
Min Temperature 55 °F 41 °F 26 °F (2000)
Degree Days  
Heating Degree Days 1 12  
Month to date heating degree days 235  
Since 1 July heating degree days 403  
Cooling Degree Days 0 0  
Month to date cooling degree days 14  
Year to date cooling degree days 2616  
Growing Degree Days 14 (Base 50)    
Moisture  
Dew Point 64 °F    
Average Humidity 92    
Maximum Humidity 100    
Minimum Humidity 81    
Precipitation  
Precipitation 0.81 in 0.07 in 1.19 in (2014)
Month to date precipitation 1.96  
Year to date precipitation 47.80  
Sea Level Pressure  
Sea Level Pressure 30.13 in    
Wind  
Wind Speed 8 mph (SSW)    
Max Wind Speed 15 mph    
Max Gust Speed 26 mph    
Visibility 7 miles    
Events Rain    
T = Trace of Precipitation, MM = Missing Value Source: NWS Daily Summary

Daily Weather History Graph

Daily Weather History Graph

Search for Another Location

Airport or City:

Trip Planner

Search our weather history database for the weather conditions in past years. The results will help you decide how hot, cold, wet, or windy it might be!

Date:

Astronomy

Dec. 23, 2013 Rise Set
Actual Time 7:27 AM EST 5:39 PM EST
Civil Twilight 7:00 AM EST 6:06 PM EST
Nautical Twilight 6:30 AM EST 6:36 PM EST
Astronomical Twilight 6:01 AM EST 7:05 PM EST
Moon 11:24 PM EST (12/23) 11:14 AM EST (12/23)
Length of Visible Light 11h 05m
Length of Day
10h 12m
Waning Gibbous, 68% of the Moon is Illuminated
Dec 23
Waning Gibbous
Dec 25
Last Quarter
Jan 1
New
Jan 7
First Quarter
Jan 15
Full

Hourly Weather History & Observations

Time (EST) Temp. Dew Point Humidity Pressure Visibility Wind Dir Wind Speed Gust Speed Precip Events Conditions
12:15 AM 69.8 °F 68.0 °F 94% 30.11 in 7.0 mi South 6.9 mph - N/A   Mostly Cloudy
12:35 AM 69.8 °F 68.0 °F 94% 30.11 in 7.0 mi South 3.5 mph - N/A   Mostly Cloudy
12:53 AM 71.1 °F 66.9 °F 87% 30.09 in - SSE 4.6 mph - N/A   Unknown
12:55 AM 69.8 °F 68.0 °F 94% 30.10 in 7.0 mi SSE 3.5 mph - N/A   Scattered Clouds
1:15 AM 69.8 °F 68.0 °F 94% 30.10 in 7.0 mi SSE 5.8 mph - N/A   Scattered Clouds
1:35 AM 69.8 °F 68.0 °F 94% 30.10 in 7.0 mi South 4.6 mph - N/A   Clear
1:53 AM 70.0 °F 66.9 °F 90% 30.08 in - South 3.5 mph - N/A   Unknown
1:55 AM 69.8 °F 68.0 °F 94% 30.10 in 7.0 mi South 3.5 mph - N/A   Clear
2:15 AM 69.8 °F 68.0 °F 94% 30.10 in 7.0 mi South 4.6 mph - N/A   Clear
2:35 AM 69.8 °F 68.0 °F 94% 30.09 in 7.0 mi SSE 6.9 mph - N/A   Clear
2:53 AM 71.1 °F 68.0 °F 90% 30.07 in - SSE 8.1 mph - N/A   Unknown
2:55 AM 69.8 °F 68.0 °F 94% 30.08 in 7.0 mi SSE 8.1 mph - N/A   Clear
3:15 AM 69.8 °F 68.0 °F 94% 30.08 in 7.0 mi South 5.8 mph - N/A   Clear
3:35 AM 71.6 °F 68.0 °F 88% 30.08 in 7.0 mi South 9.2 mph - N/A   Clear
3:53 AM 72.0 °F 66.9 °F 84% 30.07 in - South 6.9 mph - N/A   Unknown
3:55 AM 71.6 °F 68.0 °F 88% 30.08 in 10.0 mi South 6.9 mph - N/A   Clear
4:15 AM 71.6 °F 68.0 °F 88% 30.08 in 10.0 mi South 8.1 mph - N/A   Clear
4:35 AM 71.6 °F 68.0 °F 88% 30.08 in 10.0 mi South 8.1 mph - N/A   Clear
4:53 AM 73.0 °F 66.9 °F 81% 30.06 in - SSE 9.2 mph - N/A   Unknown
4:55 AM 71.6 °F 68.0 °F 88% 30.08 in 10.0 mi South 8.1 mph - N/A   Clear
5:15 AM 71.6 °F 68.0 °F 88% 30.08 in 10.0 mi South 8.1 mph - N/A   Scattered Clouds
5:35 AM 71.6 °F 68.0 °F 88% 30.08 in 10.0 mi South 6.9 mph - N/A   Scattered Clouds
5:53 AM 73.0 °F 68.0 °F 84% 30.08 in - South 8.1 mph - N/A   Unknown
5:55 AM 71.6 °F 68.0 °F 88% 30.09 in 10.0 mi South 6.9 mph - N/A   Mostly Cloudy
6:15 AM 71.6 °F 68.0 °F 88% 30.10 in 10.0 mi South 10.4 mph 16.1 mph N/A   Overcast
6:35 AM 71.6 °F 69.8 °F 94% 30.10 in 10.0 mi South 10.4 mph 18.4 mph N/A   Overcast
6:53 AM 73.0 °F 69.1 °F 87% 30.09 in - South 13.8 mph 26.5 mph N/A   Unknown
6:55 AM 71.6 °F 69.8 °F 94% 30.10 in 10.0 mi South 13.8 mph 24.2 mph N/A   Overcast
7:15 AM 71.6 °F 68.0 °F 88% 30.10 in 10.0 mi South 12.7 mph 20.7 mph N/A   Overcast
7:35 AM 71.6 °F 68.0 °F 88% 30.11 in 10.0 mi South 10.4 mph 16.1 mph N/A   Overcast
7:53 AM 73.0 °F 68.0 °F 84% 30.09 in - SSE 13.8 mph 19.6 mph N/A   Unknown
7:55 AM 71.6 °F 68.0 °F 88% 30.10 in 7.0 mi South 12.7 mph 16.1 mph N/A   Overcast
8:15 AM 71.6 °F 69.8 °F 94% 30.11 in 7.0 mi South 13.8 mph 19.6 mph N/A   Overcast
8:35 AM 71.6 °F 69.8 °F 94% 30.11 in 7.0 mi South 11.5 mph 17.3 mph N/A   Overcast
8:53 AM 73.9 °F 69.1 °F 85% 30.11 in - South 15.0 mph 21.9 mph N/A   Unknown
8:55 AM 73.4 °F 69.8 °F 88% 30.12 in 10.0 mi South 15.0 mph 19.6 mph N/A   Overcast
9:15 AM 73.4 °F 69.8 °F 88% 30.13 in 10.0 mi SSW 10.4 mph 23.0 mph N/A   Overcast
9:35 AM 71.6 °F 68.0 °F 88% 30.15 in 10.0 mi SW 12.7 mph - N/A   Overcast
9:53 AM 71.1 °F 68.0 °F 90% 30.14 in - SSW 11.5 mph - N/A   Unknown
9:55 AM 69.8 °F 68.0 °F 94% 30.15 in 3.0 mi SW 8.1 mph - N/A Rain Light Rain
10:15 AM 69.8 °F 68.0 °F 94% 30.15 in 5.0 mi South 11.5 mph - N/A   Light Drizzle
10:35 AM 69.8 °F 68.0 °F 94% 30.15 in 7.0 mi South 8.1 mph - N/A   Overcast
10:53 AM 72.0 °F 66.9 °F 84% 30.14 in - SSW 10.4 mph - N/A   Unknown
10:55 AM 69.8 °F 68.0 °F 94% 30.16 in 10.0 mi SSW 6.9 mph - N/A   Overcast
11:15 AM 71.6 °F 68.0 °F 88% 30.15 in 7.0 mi SSW 10.4 mph - N/A   Overcast
11:35 AM 71.6 °F 68.0 °F 88% 30.15 in 10.0 mi South 6.9 mph - N/A   Overcast
11:53 AM 73.9 °F 68.0 °F 82% 30.12 in - South 9.2 mph - N/A   Unknown
11:55 AM 73.4 °F 69.8 °F 88% 30.14 in 10.0 mi SSW 9.2 mph - N/A   Overcast
12:15 PM 71.6 °F 68.0 °F 88% 30.14 in 7.0 mi West 9.2 mph - N/A   Overcast
12:35 PM 71.6 °F 68.0 °F 88% 30.14 in 7.0 mi SSW 11.5 mph 21.9 mph N/A   Overcast
12:53 PM 71.1 °F 66.9 °F 87% 30.11 in - SSW 13.8 mph - N/A   Unknown
12:55 PM 69.8 °F 68.0 °F 94% 30.13 in 4.0 mi SSW 11.5 mph - N/A   Overcast
1:15 PM 69.8 °F 68.0 °F 94% 30.13 in 1.2 mi SW 10.4 mph - N/A   Overcast
1:35 PM 68.0 °F 68.0 °F 100% 30.12 in 0.8 mi SW 8.1 mph - N/A   Overcast
1:53 PM 70.0 °F 66.9 °F 90% 30.10 in - SSW 8.1 mph - N/A   Unknown
1:55 PM 68.0 °F 68.0 °F 100% 30.11 in 1.0 mi SW 8.1 mph - N/A   Overcast
2:15 PM 68.0 °F 68.0 °F 100% 30.10 in 1.0 mi South 4.6 mph - N/A   Overcast
2:35 PM 68.0 °F 68.0 °F 100% 30.10 in 1.5 mi SW 3.5 mph - N/A   Overcast
2:53 PM 70.0 °F 66.9 °F 90% 30.09 in - WSW 3.5 mph - N/A   Unknown
2:55 PM 68.0 °F 68.0 °F 100% 30.11 in 0.8 mi WSW 3.5 mph - N/A   Overcast
3:15 PM 68.0 °F 64.4 °F 88% 30.11 in 0.8 mi NNW 6.9 mph - N/A Rain Light Rain
3:35 PM 66.2 °F 64.4 °F 94% 30.11 in 2.5 mi North 6.9 mph - N/A Rain Rain
3:53 PM 66.9 °F 64.0 °F 90% 30.10 in - North 3.5 mph - 0.05 in   Unknown
3:55 PM 64.4 °F 64.4 °F 100% 30.11 in 4.0 mi North 3.5 mph - 0.04 in Rain Heavy Rain
4:15 PM 64.4 °F 62.6 °F 94% 30.11 in 3.0 mi NNE 5.8 mph - 0.07 in Rain Heavy Rain
4:35 PM 64.4 °F 62.6 °F 94% 30.12 in 2.0 mi North 5.8 mph - 0.19 in Rain Heavy Rain
4:53 PM 64.0 °F 62.1 °F 93% 30.11 in - North 6.9 mph - 0.31 in   Unknown
4:55 PM 62.6 °F 62.6 °F 100% 30.12 in 2.5 mi North 5.8 mph - 0.32 in Rain Heavy Rain
5:15 PM 62.6 °F 60.8 °F 94% 30.13 in 7.0 mi NNW 8.1 mph - 0.03 in Rain Rain
5:35 PM 62.6 °F 60.8 °F 94% 30.12 in 10.0 mi North 8.1 mph - 0.05 in Rain Light Rain
5:53 PM 63.0 °F 60.1 °F 90% 30.11 in - North 6.9 mph - 0.17 in   Unknown
5:55 PM 62.6 °F 60.8 °F 94% 30.13 in 10.0 mi North 6.9 mph - 0.07 in Rain Light Rain
6:15 PM 60.8 °F 60.8 °F 100% 30.13 in 4.0 mi North 8.1 mph - 0.09 in Rain Heavy Rain
6:35 PM 60.8 °F 59.0 °F 94% 30.14 in 5.0 mi WNW 6.9 mph - 0.15 in Rain Rain
6:53 PM 60.1 °F 57.0 °F 90% 30.14 in - NNW 6.9 mph - 0.21 in   Unknown
6:55 PM 59.0 °F 57.2 °F 94% 30.15 in 4.0 mi North 5.8 mph - 0.20 in Rain Heavy Rain
7:15 PM 57.2 °F 55.4 °F 94% 30.15 in 5.0 mi North 10.4 mph 16.1 mph 0.03 in Rain Rain
7:35 PM 57.2 °F 55.4 °F 94% 30.17 in 5.0 mi North 9.2 mph - 0.04 in   Light Drizzle
7:53 PM 57.9 °F 55.0 °F 90% 30.15 in - North 11.5 mph - 0.05 in   Unknown
7:55 PM 57.2 °F 55.4 °F 94% 30.16 in 7.0 mi North 11.5 mph - 0.04 in   Light Drizzle
8:15 PM 55.4 °F 55.4 °F 100% 30.17 in 10.0 mi North 9.2 mph - N/A   Light Drizzle
8:35 PM 57.2 °F 55.4 °F 94% 30.17 in 10.0 mi North 5.8 mph - N/A   Overcast
8:53 PM 57.9 °F 55.0 °F 90% 30.17 in - North 8.1 mph - N/A   Unknown
8:55 PM 57.2 °F 55.4 °F 94% 30.18 in 10.0 mi North 9.2 mph - N/A   Overcast
9:15 PM 57.2 °F 55.4 °F 94% 30.18 in 10.0 mi North 6.9 mph - N/A   Overcast
9:35 PM 57.2 °F 55.4 °F 94% 30.18 in 10.0 mi North 6.9 mph - N/A   Overcast
9:53 PM 57.9 °F 55.0 °F 90% 30.19 in - NNW 5.8 mph - N/A   Unknown
9:55 PM 57.2 °F 55.4 °F 94% 30.20 in 10.0 mi North 6.9 mph - N/A   Overcast
10:15 PM 57.2 °F 55.4 °F 94% 30.20 in 10.0 mi North 5.8 mph - N/A   Overcast
10:35 PM 57.2 °F 55.4 °F 94% 30.21 in 5.0 mi NNW 8.1 mph - N/A   Light Drizzle
10:53 PM 57.9 °F 55.0 °F 90% 30.20 in - NNW 8.1 mph - N/A   Unknown
10:55 PM 55.4 °F 55.4 °F 100% 30.21 in 4.0 mi North 9.2 mph - N/A Rain Rain
11:15 PM 55.4 °F 55.4 °F 100% 30.21 in 2.5 mi NNW 10.4 mph - N/A   Drizzle
11:35 PM 55.4 °F 55.4 °F 100% 30.21 in 3.0 mi NNW 9.2 mph - 0.01 in   Light Drizzle
11:53 PM 57.0 °F 54.0 °F 89% 30.20 in - NNW 10.4 mph - N/A   Unknown
11:55 PM 55.4 °F 53.6 °F 94% 30.21 in 3.0 mi NNW 10.4 mph - 0.01 in   Light Drizzle